Weather History for KHDE - December, 2012

Change the Weather History Date:

Friday, December 28, 2012

  Actual Average Record
Temperature  
Mean Temperature 10 °F -  
Max Temperature 17 °F 36 °F 68 °F (2002)
Min Temperature 4 °F 15 °F 1 °F (1968)
Degree Days  
Heating Degree Days 54    
Moisture  
Dew Point 6 °F    
Average Humidity 80    
Maximum Humidity 86    
Minimum Humidity 71    
Precipitation  
Precipitation 0.00 in - - ()
Sea Level Pressure  
Sea Level Pressure 30.01 in    
Wind  
Wind Speed 9 mph (NW)    
Max Wind Speed 14 mph    
Max Gust Speed 18 mph    
Visibility 10 miles    
Events      
Averages and records for this station are not official NWS values.
T = Trace of Precipitation, MM = Missing Value Source: NWS Daily Summary

Daily Weather History Graph

Daily Weather History Graph

Search for Another Location

Airport or City:

Trip Planner

Search our weather history database for the weather conditions in past years. The results will help you decide how hot, cold, wet, or windy it might be!

Date:

Astronomy

Dec. 28, 2012 Rise Set
Actual Time 7:59 AM CST 5:18 PM CST
Civil Twilight 7:29 AM CST 5:49 PM CST
Nautical Twilight 6:54 AM CST 6:23 PM CST
Astronomical Twilight 6:21 AM CST 6:56 PM CST
Moon 5:57 PM CST (12/28) 7:55 AM CST (12/28)
Length of Visible Light 10h 20m
Length of Day
9h 18m
Full, 100% of the Moon is Illuminated
Dec 28
Full
Jan 4
Last Quarter
Jan 11
New
Jan 18
First Quarter
Jan 26
Full

Hourly Weather History & Observations

Time (CST) Temp. Windchill Dew Point Humidity Pressure Visibility Wind Dir Wind Speed Gust Speed Precip Events Conditions
12:15 AM 17.2 °F 5.2 °F 11.8 °F 79% 29.94 in 10.0 mi NW 10.4 mph - N/A   Overcast
12:35 AM 17.1 °F 6.6 °F 11.7 °F 79% 29.94 in 10.0 mi NW 8.1 mph - N/A   Overcast
12:55 AM 16.7 °F 5.3 °F 11.7 °F 81% 29.94 in 10.0 mi WNW 9.2 mph - N/A   Overcast
1:15 AM 15.6 °F 4.9 °F 10.4 °F 80% 29.95 in 10.0 mi NW 8.1 mph - N/A   Overcast
1:35 AM 14.0 °F 3.9 °F 9.1 °F 81% 29.95 in 10.0 mi WNW 6.9 mph - N/A   Overcast
1:55 AM 12.9 °F 1.6 °F 8.1 °F 81% 29.96 in 10.0 mi NW 8.1 mph - N/A   Overcast
2:15 AM 13.1 °F 0.1 °F 8.6 °F 82% 29.96 in 10.0 mi NW 10.4 mph - N/A   Overcast
2:35 AM 11.8 °F -1.5 °F 7.3 °F 82% 29.97 in 10.0 mi NW 10.4 mph - N/A   Overcast
2:55 AM 8.6 °F -5.5 °F 4.6 °F 84% 29.97 in 10.0 mi NW 10.4 mph - N/A   Scattered Clouds
3:15 AM 8.8 °F -3.5 °F 5.0 °F 85% 29.98 in 10.0 mi WNW 8.1 mph - N/A   Clear
3:35 AM 7.9 °F -4.6 °F 3.9 °F 84% 29.97 in 10.0 mi WNW 8.1 mph - N/A   Clear
3:55 AM 6.4 °F -7.3 °F 2.5 °F 84% 29.97 in 10.0 mi NW 9.2 mph - N/A   Clear
4:15 AM 6.6 °F -7.1 °F 2.8 °F 84% 29.97 in 10.0 mi WNW 9.2 mph - N/A   Clear
4:35 AM 6.6 °F -6.1 °F 2.8 °F 84% 29.97 in 10.0 mi WNW 8.1 mph - N/A   Clear
4:55 AM 5.2 °F -10.6 °F 1.0 °F 83% 29.97 in 10.0 mi NW 11.5 mph - N/A   Clear
5:15 AM 6.1 °F -7.8 °F 1.6 °F 82% 29.97 in 10.0 mi NW 9.2 mph - N/A   Clear
5:35 AM 5.0 °F -8.1 °F 0.5 °F 82% 29.98 in 10.0 mi WNW 8.1 mph - N/A   Clear
5:55 AM 4.8 °F -7.1 °F 0.3 °F 82% 29.97 in 10.0 mi NW 6.9 mph - N/A   Clear
6:15 AM 4.8 °F -10.2 °F 0.3 °F 82% 29.97 in 10.0 mi NW 10.4 mph - N/A   Clear
6:35 AM 5.4 °F -11.1 °F 0.9 °F 82% 29.98 in 10.0 mi NW 12.7 mph - N/A   Clear
6:55 AM 5.5 °F -9.3 °F 0.7 °F 80% 29.98 in 10.0 mi NW 10.4 mph - N/A   Clear
7:15 AM 5.5 °F -8.4 °F 1.4 °F 83% 29.98 in 10.0 mi NW 9.2 mph - N/A   Clear
7:35 AM 5.7 °F -7.2 °F 1.4 °F 82% 29.99 in 10.0 mi NW 8.1 mph - N/A   Clear
7:55 AM 5.9 °F -8.9 °F 1.8 °F 83% 29.99 in 10.0 mi NW 10.4 mph - N/A   Clear
8:15 AM 7.7 °F -7.4 °F 3.6 °F 83% 30.00 in 10.0 mi NW 11.5 mph - N/A   Clear
8:35 AM 8.4 °F -7.3 °F 3.9 °F 82% 30.00 in 10.0 mi NW 12.7 mph - N/A   Clear
8:55 AM 8.2 °F -8.2 °F 3.7 °F 82% 30.00 in 10.0 mi NW 13.8 mph 18.4 mph N/A   Clear
9:15 AM 9.0 °F -6.6 °F 4.1 °F 81% 30.01 in 10.0 mi NW 12.7 mph - N/A   Clear
9:35 AM 9.9 °F -4.7 °F 4.8 °F 80% 30.01 in 10.0 mi NW 11.5 mph - N/A   Clear
9:55 AM 10.4 °F -3.3 °F 5.4 °F 80% 30.02 in 10.0 mi NW 10.4 mph 16.1 mph N/A   Clear
10:15 AM 12.0 °F -2.7 °F 6.6 °F 79% 30.02 in 10.0 mi NNW 12.7 mph - N/A   Clear
10:35 AM 12.9 °F -0.2 °F 7.3 °F 78% 30.02 in 10.0 mi NNW 10.4 mph - N/A   Clear
10:55 AM 13.8 °F 0.2 °F 7.9 °F 77% 30.03 in 10.0 mi NNW 11.5 mph 16.1 mph N/A   Clear
11:15 AM 14.2 °F 0.7 °F 8.1 °F 77% 30.03 in 10.0 mi NW 11.5 mph - N/A   Clear
11:35 AM 15.1 °F 0.5 °F 8.8 °F 76% 30.02 in 10.0 mi NW 13.8 mph - N/A   Clear
12:15 PM 15.8 °F 3.4 °F 9.3 °F 76% 30.01 in 10.0 mi NNW 10.4 mph - N/A   Clear
12:35 PM 16.5 °F 3.6 °F 9.9 °F 75% 30.00 in 10.0 mi NW 11.5 mph - N/A   Clear
12:55 PM 16.7 °F 2.6 °F 9.9 °F 74% 30.00 in 10.0 mi NNW 13.8 mph - N/A   Clear
1:15 PM 16.7 °F 3.8 °F 9.5 °F 73% 30.00 in 10.0 mi NW 11.5 mph - N/A   Clear
1:35 PM 16.7 °F 3.2 °F 9.5 °F 73% 30.00 in 10.0 mi NW 12.7 mph - N/A   Clear
1:55 PM 17.2 °F 5.2 °F 9.7 °F 72% 30.00 in 10.0 mi NW 10.4 mph - N/A   Clear
2:15 PM 17.1 °F 5.8 °F 9.5 °F 72% 29.99 in 10.0 mi NW 9.2 mph - N/A   Clear
2:35 PM 17.2 °F 6.8 °F 9.5 °F 72% 30.00 in 10.0 mi NW 8.1 mph - N/A   Clear
2:55 PM 17.6 °F 7.3 °F 9.7 °F 71% 30.00 in 10.0 mi NW 8.1 mph - N/A   Clear
3:15 PM 17.6 °F 7.3 °F 9.5 °F 71% 30.00 in 10.0 mi NW 8.1 mph - N/A   Clear
3:35 PM 17.6 °F 7.3 °F 9.7 °F 71% 30.00 in 10.0 mi NW 8.1 mph - N/A   Clear
3:55 PM 17.6 °F 8.2 °F 10.2 °F 73% 30.01 in 10.0 mi NW 6.9 mph - N/A   Clear
4:15 PM 17.2 °F 8.9 °F 9.9 °F 73% 30.02 in 10.0 mi NW 5.8 mph - N/A   Clear
4:35 PM 16.7 °F 9.6 °F 9.5 °F 73% 30.02 in 10.0 mi WNW 4.6 mph - N/A   Clear
4:55 PM 15.8 °F 8.6 °F 9.0 °F 74% 30.02 in 10.0 mi NW 4.6 mph - N/A   Clear
5:15 PM 14.0 °F 6.5 °F 8.4 °F 78% 30.03 in 10.0 mi NNW 4.6 mph - N/A   Clear
5:35 PM 12.9 °F 3.8 °F 7.7 °F 80% 30.04 in 10.0 mi NW 5.8 mph - N/A   Clear
5:55 PM 12.6 °F 3.4 °F 7.7 °F 81% 30.04 in 10.0 mi NW 5.8 mph - N/A   Clear
6:15 PM 11.8 °F 5.7 °F 6.8 °F 80% 30.05 in 10.0 mi NNW 3.5 mph - N/A   Clear
6:35 PM 9.5 °F 1.2 °F 5.5 °F 84% 30.05 in 10.0 mi NW 4.6 mph - N/A   Clear
6:55 PM 10.0 °F 1.8 °F 6.1 °F 84% 30.06 in 10.0 mi WNW 4.6 mph - N/A   Clear
7:15 PM 9.0 °F 2.4 °F 5.0 °F 84% 30.07 in 10.0 mi WNW 3.5 mph - N/A   Clear
7:35 PM 7.7 °F 1.0 °F 4.1 °F 85% 30.07 in 10.0 mi WNW 3.5 mph - N/A   Clear
7:55 PM 8.1 °F 1.4 °F 4.6 °F 86% 30.07 in 10.0 mi West 3.5 mph - N/A   Clear
8:15 PM 9.0 °F 0.6 °F 5.2 °F 85% 30.07 in 10.0 mi West 4.6 mph - N/A   Clear
8:35 PM 7.7 °F 1.0 °F 4.1 °F 85% 30.06 in 10.0 mi WNW 3.5 mph - N/A   Clear
8:55 PM 7.0 °F -3.3 °F 3.2 °F 84% 30.06 in 10.0 mi WNW 5.8 mph - N/A   Clear
9:15 PM 8.8 °F -2.4 °F 5.4 °F 86% 30.06 in 10.0 mi WNW 6.9 mph - N/A   Clear
9:35 PM 6.1 °F -6.8 °F 2.3 °F 84% 30.06 in 10.0 mi WNW 8.1 mph - N/A   Scattered Clouds
9:55 PM 8.2 °F -3.0 °F 4.3 °F 84% 30.07 in 10.0 mi WNW 6.9 mph - N/A   Clear
10:15 PM 8.8 °F -3.5 °F 5.0 °F 85% 30.07 in 10.0 mi West 8.1 mph - N/A   Clear
10:35 PM 9.5 °F -1.5 °F 5.0 °F 82% 30.07 in 10.0 mi WNW 6.9 mph - N/A   Clear
10:55 PM 9.3 °F -0.5 °F 4.3 °F 80% 30.07 in 10.0 mi WNW 5.8 mph - N/A   Clear
11:15 PM 8.8 °F -3.5 °F 3.9 °F 81% 30.07 in 10.0 mi WNW 8.1 mph - N/A   Clear
11:35 PM 9.5 °F -2.6 °F 4.8 °F 81% 30.08 in 10.0 mi WNW 8.1 mph - N/A   Clear
11:55 PM 9.9 °F -1.1 °F 4.8 °F 80% 30.08 in 10.0 mi WNW 6.9 mph - N/A   Clear